STARLINK-1501 (45763 NORAD) Tracking and Keplerian Element Data

This shows tracking and keplerian element data for the satellite.

Feedback or suggestion? Click here.




ElementValue
Catalog45763
NameSTARLINK-1501
Epoch Orbit532
Epoch Day192.16668981
Epoch Year2020
RAAN164.9005
Inclination53.001
Eccentricity8.78E-05
Argument of Perigee87.7618
Mean Anonmoly7.2424
Mean Motion15.62729853
Decay Rate-0.00023494
L11 45763U 20038AK 20192.16668981 -.00023494 00000-0 -25172-3 0 9991
L22 45763 53.0010 164.9005 0000878 87.7618 7.2424 15.62729853 5328

Live tracking and technical data element details for STARLINK-1501 (NORAD 45763). STARLINK-1501 can be tracked NOW for your location showing map with azimuth and elevation plus other details from your city location.

Track the satellite on the map from your city or location and see movement details for azimuth, elevation, latitude, longitude, range, height, and movement on the map or in text.







IsCatalogInMostPopularTable: catalog: 45763, numindb: 5
Update: records affected: 1



GetName: 45763 STARLINK-1501

Hit Count: updated at: Fri, 10 Jul 2020 16:44:09 GMT